Worthington, MN

7:54 PM CST on February 25, 2017 (GMT -0600)
Worthington Municipal

Weather History for KOTG - November, 2012

Change the Weather History Date:

Friday, November 23, 2012

  Actual Average Record
Temperature  
Mean Temperature 18 °F -  
Max Temperature 26 °F 35 °F 64 °F (1974)
Min Temperature 10 °F 21 °F 1 °F (2013)
Degree Days  
Heating Degree Days 47    
Moisture  
Dew Point 8 °F    
Average Humidity 60    
Maximum Humidity 79    
Minimum Humidity 47    
Precipitation  
Precipitation 0.00 in - - ()
Sea Level Pressure  
Sea Level Pressure 30.33 in    
Wind  
Wind Speed 22 mph (NW)    
Max Wind Speed 31 mph    
Max Gust Speed 40 mph    
Visibility 10 miles    
Events      
Averages and records for this station are not official NWS values.
T = Trace of Precipitation, MM = Missing Value Source: NWS Daily Summary

Daily Weather History Graph

Daily Weather History Graph

Search for Another Location

Airport or City:

Trip Planner

Search our weather history database for the weather conditions in past years. The results will help you decide how hot, cold, wet, or windy it might be!

Date:

Astronomy

Nov. 23, 2012 Rise Set
Actual Time 7:27 AM CST 4:50 PM CST
Civil Twilight 6:55 AM CST 5:21 PM CST
Nautical Twilight 6:20 AM CST 5:57 PM CST
Astronomical Twilight 5:45 AM CST 6:31 PM CST
Moon 2:11 PM CST (11/23) 2:39 AM CST (11/23)
Length of Visible Light 10h 26m
Length of Day
9h 23m
Waxing Gibbous, 80% of the Moon is Illuminated
Nov 23
Waxing Gibbous
Nov 28
Full
Dec 6
Last Quarter
Dec 13
New
Dec 19
First Quarter

Hourly Weather History & Observations

Time (CST) Temp. Windchill Dew Point Humidity Pressure Visibility Wind Dir Wind Speed Gust Speed Precip Events Conditions
12:15 AM 26.6 °F 11.1 °F 14.0 °F 59% 30.16 in 10.0 mi NW 26.5 mph 35.7 mph N/A   Overcast
12:35 AM - - - N/A% 30.16 in 10.0 mi NW 28.8 mph 34.5 mph N/A   Overcast
12:55 AM 26.6 °F 10.0 °F 12.2 °F 55% 30.17 in 10.0 mi WNW 31.1 mph 40.3 mph N/A   Overcast
1:15 AM 24.8 °F 8.4 °F 10.4 °F 54% 30.18 in 10.0 mi NW 27.6 mph 39.1 mph N/A   Mostly Cloudy
1:35 AM 24.8 °F 9.3 °F 10.4 °F 54% 30.19 in 10.0 mi WNW 24.2 mph 31.1 mph N/A   Mostly Cloudy
1:55 AM 24.8 °F 9.0 °F 10.4 °F 54% 30.20 in 10.0 mi NW 25.3 mph 35.7 mph N/A   Overcast
2:15 AM 24.8 °F 8.4 °F 10.4 °F 54% 30.21 in 10.0 mi NW 27.6 mph 33.4 mph N/A   Overcast
2:35 AM - - - N/A% 30.22 in 10.0 mi NW 25.3 mph 33.4 mph N/A   Overcast
2:55 AM - - - N/A% 30.22 in 10.0 mi NW 29.9 mph 36.8 mph N/A   Overcast
3:15 AM - - - N/A% 30.23 in 10.0 mi NW 31.1 mph 36.8 mph N/A   Mostly Cloudy
3:35 AM 23.0 °F 6.0 °F 10.4 °F 59% 30.24 in 10.0 mi NW 27.6 mph 35.7 mph N/A   Mostly Cloudy
3:55 AM 21.2 °F 3.0 °F 8.6 °F 58% 30.24 in 10.0 mi NW 29.9 mph 34.5 mph N/A   Scattered Clouds
4:15 AM 19.4 °F 2.1 °F 8.6 °F 63% 30.25 in 10.0 mi NW 24.2 mph 31.1 mph N/A   Partly Cloudy
4:35 AM 19.4 °F 2.8 °F 8.6 °F 63% 30.26 in 10.0 mi NW 21.9 mph 26.5 mph N/A   Clear
4:55 AM 19.4 °F 2.8 °F 8.6 °F 63% 30.27 in 10.0 mi NW 21.9 mph 34.5 mph N/A   Clear
5:15 AM 19.4 °F 2.8 °F 10.4 °F 68% 30.27 in 10.0 mi NW 21.9 mph 27.6 mph N/A   Scattered Clouds
5:35 AM 19.4 °F 2.5 °F 10.4 °F 68% 30.28 in 10.0 mi NW 23.0 mph 32.2 mph N/A   Overcast
5:55 AM 21.2 °F 3.5 °F 8.6 °F 58% 30.29 in 10.0 mi NW 27.6 mph 38.0 mph N/A   Overcast
6:15 AM 19.4 °F 2.1 °F 8.6 °F 63% 30.30 in 10.0 mi NNW 24.2 mph 33.4 mph N/A   Mostly Cloudy
6:35 AM 19.4 °F 2.1 °F 8.6 °F 63% 30.31 in 10.0 mi NW 24.2 mph 34.5 mph N/A   Mostly Cloudy
6:55 AM 19.4 °F 2.1 °F 8.6 °F 63% 30.32 in 10.0 mi NNW 24.2 mph 33.4 mph N/A   Overcast
7:15 AM 19.4 °F 1.8 °F 6.8 °F 58% 30.32 in 10.0 mi NW 25.3 mph 31.1 mph N/A   Overcast
7:35 AM 19.4 °F 2.8 °F 8.6 °F 63% 30.33 in 10.0 mi NW 21.9 mph 29.9 mph N/A   Overcast
7:55 AM 19.4 °F 3.2 °F 8.6 °F 63% 30.34 in 10.0 mi NW 20.7 mph 29.9 mph N/A   Overcast
8:15 AM 19.4 °F 2.1 °F 8.6 °F 63% 30.35 in 10.0 mi NW 24.2 mph 31.1 mph N/A   Overcast
8:35 AM 19.4 °F 2.1 °F 8.6 °F 63% 30.35 in 10.0 mi NW 24.2 mph - N/A   Overcast
8:55 AM 19.4 °F 2.1 °F 8.6 °F 63% 30.36 in 10.0 mi NW 24.2 mph 31.1 mph N/A   Overcast
9:15 AM 21.2 °F 4.9 °F 8.6 °F 58% 30.37 in 10.0 mi NW 23.0 mph 29.9 mph N/A   Overcast
9:35 AM 21.2 °F 6.4 °F 8.6 °F 58% 30.38 in 10.0 mi NW 18.4 mph 28.8 mph N/A   Overcast
9:55 AM 21.2 °F 3.9 °F 8.6 °F 58% 30.38 in 10.0 mi NNW 26.5 mph - N/A   Overcast
10:15 AM - - - N/A% 30.38 in 10.0 mi NW 23.0 mph 32.2 mph N/A   Overcast
10:35 AM 24.8 °F 10.0 °F 8.6 °F 50% 30.40 in 10.0 mi NW 21.9 mph 29.9 mph N/A   Overcast
10:55 AM - - - N/A% 30.40 in 10.0 mi NNW 25.3 mph 33.4 mph N/A   Overcast
11:15 AM - - - N/A% 30.40 in 10.0 mi NNW 26.5 mph 32.2 mph N/A   Overcast
11:35 AM - - - N/A% 30.39 in 10.0 mi NNW 21.9 mph 32.2 mph N/A   Mostly Cloudy
11:55 AM 24.8 °F 10.7 °F 8.6 °F 50% 30.40 in 10.0 mi NW 19.6 mph 28.8 mph N/A   Mostly Cloudy
12:15 PM 24.8 °F 9.6 °F 8.6 °F 50% 30.40 in 10.0 mi NW 23.0 mph 27.6 mph N/A   Mostly Cloudy
12:35 PM 24.8 °F 9.3 °F 8.6 °F 50% 30.39 in 10.0 mi NW 24.2 mph 29.9 mph N/A   Mostly Cloudy
12:55 PM 24.8 °F 9.6 °F 8.6 °F 50% 30.40 in 10.0 mi NW 23.0 mph 27.6 mph N/A   Mostly Cloudy
1:15 PM 24.8 °F 10.0 °F 8.6 °F 50% 30.39 in 10.0 mi NNW 21.9 mph 28.8 mph N/A   Mostly Cloudy
1:35 PM 26.6 °F 13.1 °F 8.6 °F 47% 30.39 in 10.0 mi NW 19.6 mph 24.2 mph N/A   Mostly Cloudy
1:55 PM 26.6 °F 13.1 °F 8.6 °F 47% 30.38 in 10.0 mi NW 19.6 mph 24.2 mph N/A   Mostly Cloudy
2:15 PM 24.8 °F 11.1 °F 8.6 °F 50% 30.39 in 10.0 mi NW 18.4 mph 24.2 mph N/A   Mostly Cloudy
2:35 PM 26.6 °F 14.3 °F 8.6 °F 47% 30.38 in 10.0 mi NNW 16.1 mph 20.7 mph N/A   Scattered Clouds
2:55 PM 26.6 °F 13.8 °F 8.6 °F 47% 30.38 in 10.0 mi NNW 17.3 mph - N/A   Scattered Clouds
3:15 PM 26.6 °F 14.3 °F 10.4 °F 51% 30.38 in 10.0 mi NW 16.1 mph 21.9 mph N/A   Partly Cloudy
3:35 PM 26.6 °F 14.3 °F 8.6 °F 47% 30.39 in 10.0 mi NNW 16.1 mph 20.7 mph N/A   Clear
3:55 PM 24.8 °F 13.4 °F 10.4 °F 54% 30.39 in 10.0 mi NNW 12.7 mph - N/A   Clear
4:15 PM 24.8 °F 13.4 °F 8.6 °F 50% 30.39 in 10.0 mi NW 12.7 mph - N/A   Clear
4:35 PM 24.8 °F 12.4 °F 8.6 °F 50% 30.39 in 10.0 mi NW 15.0 mph - N/A   Clear
4:55 PM 23.0 °F 11.7 °F 8.6 °F 54% 30.39 in 10.0 mi NW 11.5 mph - N/A   Clear
5:15 PM 21.2 °F 10.1 °F 8.6 °F 58% 30.38 in 10.0 mi NW 10.4 mph - N/A   Clear
5:35 PM 19.4 °F 8.6 °F 8.6 °F 63% 30.38 in 10.0 mi NW 9.2 mph - N/A   Clear
5:55 PM 19.4 °F 7.2 °F 8.6 °F 63% 30.39 in 10.0 mi WNW 11.5 mph - N/A   Clear
6:15 PM 19.4 °F 8.6 °F 8.6 °F 63% 30.39 in 10.0 mi WNW 9.2 mph - N/A   Clear
6:35 PM 17.6 °F 7.3 °F 8.6 °F 68% 30.38 in 10.0 mi WNW 8.1 mph - N/A   Clear
6:55 PM 17.6 °F 6.4 °F 8.6 °F 68% 30.38 in 10.0 mi WNW 9.2 mph - N/A   Clear
7:15 PM 17.6 °F 6.4 °F 8.6 °F 68% 30.37 in 10.0 mi NW 9.2 mph - N/A   Clear
7:35 PM 17.6 °F 7.3 °F 6.8 °F 63% 30.37 in 10.0 mi WNW 8.1 mph - N/A   Clear
7:55 PM 15.8 °F 6.1 °F 6.8 °F 68% 30.37 in 10.0 mi NW 6.9 mph - N/A   Clear
8:15 PM 15.8 °F 8.6 °F 6.8 °F 68% 30.37 in 10.0 mi NNW 4.6 mph - N/A   Clear
8:35 PM 15.8 °F 10.2 °F 6.8 °F 68% 30.37 in 10.0 mi NNW 3.5 mph - N/A   Clear
8:55 PM 14.0 °F 6.5 °F 6.8 °F 73% 30.36 in 10.0 mi NW 4.6 mph - N/A   Clear
9:15 PM 14.0 °F 5.1 °F 5.0 °F 67% 30.36 in 10.0 mi NW 5.8 mph - N/A   Clear
9:35 PM 12.2 °F 2.9 °F 5.0 °F 73% 30.36 in 10.0 mi NW 5.8 mph - N/A   Clear
9:55 PM 12.2 °F 6.1 °F 5.0 °F 73% 30.35 in 10.0 mi WNW 3.5 mph - N/A   Clear
10:15 PM 14.0 °F 5.1 °F 6.8 °F 73% 30.35 in 10.0 mi WNW 5.8 mph - N/A   Clear
10:35 PM 14.0 °F 3.9 °F 6.8 °F 73% 30.35 in 10.0 mi NW 6.9 mph - N/A   Clear
10:55 PM 12.2 °F 2.9 °F 5.0 °F 73% 30.35 in 10.0 mi WNW 5.8 mph - N/A   Clear
11:15 PM 12.2 °F 6.1 °F 5.0 °F 73% 30.33 in 10.0 mi NW 3.5 mph - N/A   Clear
11:35 PM 10.4 °F 0.8 °F 5.0 °F 79% 30.33 in 10.0 mi North 5.8 mph - N/A   Clear
11:55 PM 10.4 °F 4.0 °F 3.2 °F 73% 30.34 in 10.0 mi NW 3.5 mph - N/A   Clear